Wind_Speed
12 11 12 12 11 10 10 11 10 10 9 9 9 10 10 9 7 7 7 6 6 6 6 6 5 5 5 5 5 5 5 4 4 4 3 3 3 3 3 3 4 4 4 4 4 4 4 4 4
12 12 12 12 11 11 11 11 11 11 11 10 10 10 9 9 8 8 8 8 7 7 7 7 6 6 6 5 5 4 4 4 3 3 2 2 2 2 2 2 2 3 3 3 3 3 3 3 3
13 13 13 13 12 12 12 12 11 12 11 11 12 12 10 9 9 9 9 9 8 7 7 8 8 7 6 6 5 4 4 4 3 3 2 1 1 1 1 1 1 1 2 2 2 2 2 2 2
13 13 13 13 13 12 11 11 12 11 11 11 12 12 10 10 9 8 8 8 8 8 8 9 8 8 7 7 6 5 5 4 4 3 2 1 1 0 0 0 0 0 1 2 2 2 1 1 1
14 14 14 13 13 13 11 11 12 12 11 12 13 12 11 10 9 8 8 8 9 9 9 9 9 8 8 8 7 6 6 5 4 4 3 2 2 2 2 2 2 2 2 2 2 2 2 2 2
15 14 14 14 13 13 12 12 13 13 12 12 13 12 11 10 9 9 8 8 9 10 10 10 10 9 9 9 8 7 6 6 5 5 4 4 4 3 4 4 4 3 3 3 3 3 3 2 2
15 15 14 14 14 14 13 13 13 13 13 13 13 13 11 11 10 9 8 8 9 10 11 11 10 10 10 10 9 9 8 7 6 6 6 6 5 5 5 5 5 5 5 4 4 4 4 3 3
15 15 15 14 14 13 13 13 13 14 14 14 14 13 13 12 12 10 9 9 9 10 11 11 11 10 10 10 10 10 10 8 8 7 7 7 6 6 6 7 7 6 6 5 5 5 5 4 4
15 15 14 14 13 13 13 13 13 14 14 14 14 13 13 13 12 11 10 9 9 10 11 11 11 11 10 10 11 11 11 11 10 9 8 8 7 7 7 7 7 7 7 6 6 6 6 6 5
15 14 14 14 14 14 14 13 14 14 15 15 15 13 13 12 11 10 10 9 9 10 10 11 11 11 11 12 12 12 12 12 11 10 10 10 9 9 8 8 8 8 8 8 7 7 7 7 7
14 14 14 14 15 15 14 14 14 14 14 14 14 12 11 11 10 10 10 9 8 9 9 9 11 11 12 13 13 13 13 13 12 11 11 11 11 10 10 9 10 9 9 9 9 9 9 9 8
14 14 14 14 15 15 15 14 14 13 13 12 12 10 10 11 10 10 9 9 9 9 9 10 10 12 13 14 14 13 14 14 13 13 13 11 12 11 11 11 10 10 10 10 10 10 10 10 10
14 13 14 14 15 15 16 15 14 13 12 12 11 10 10 10 9 9 8 9 9 10 10 11 11 12 12 14 14 14 14 15 14 13 14 13 12 12 12 11 11 10 10 9 9 10 10 10 10
14 13 13 14 15 15 15 14 14 13 12 12 11 10 9 9 9 8 8 8 9 10 11 11 10 12 12 12 14 13 14 14 14 14 14 14 12 11 11 11 10 10 9 9 9 9 9 10 10
15 14 13 13 14 14 14 14 14 13 12 12 11 10 9 9 8 8 8 8 9 10 10 12 12 11 12 12 13 14 14 13 13 13 13 13 12 11 10 10 10 10 9 9 9 9 8 9 9
15 14 13 12 14 14 14 14 13 13 12 12 12 10 10 9 9 8 8 7 9 9 11 12 12 12 12 13 13 13 13 13 13 12 12 11 12 11 10 10 10 10 9 8 8 8 8 9 9
16 15 14 13 13 14 15 14 13 13 12 12 11 10 10 10 9 9 9 8 9 10 11 11 11 11 12 13 13 13 13 13 13 12 12 11 11 11 10 10 10 10 9 8 8 8 8 8 9
16 15 14 12 13 14 14 13 13 13 13 12 12 10 10 10 10 10 9 9 9 10 11 11 11 12 12 12 13 13 13 12 12 11 11 11 10 10 10 10 9 9 9 8 8 8 8 8 9
17 16 14 12 13 14 14 14 13 13 13 11 10 10 11 10 10 10 9 8 8 9 9 11 11 11 12 13 12 12 13 12 11 10 10 10 9 9 10 9 9 8 8 8 8 7 7 8 8
18 16 14 13 13 14 15 14 13 13 12 11 11 11 11 10 9 8 8 7 7 8 9 10 10 11 12 12 12 12 12 11 10 9 9 9 9 8 9 8 7 7 7 7 7 6 7 7 7
18 17 15 14 15 16 17 15 15 13 12 12 11 10 9 9 8 7 7 7 7 8 9 10 10 10 11 11 12 12 11 10 9 8 8 8 7 7 7 7 7 6 6 6 6 6 6 7 7
18 17 16 15 15 16 16 14 14 13 13 13 11 10 8 7 7 7 7 8 8 9 9 10 10 10 11 12 12 12 11 11 10 9 8 7 6 6 6 6 6 6 5 6 6 6 6 7 7
18 17 17 17 16 16 16 15 14 14 12 12 10 9 8 7 6 6 7 8 9 9 9 9 9 10 10 11 11 12 11 11 11 10 8 8 7 6 6 6 5 5 5 5 5 6 6 6 7
18 18 19 18 17 17 16 17 15 14 12 11 10 9 8 6 6 6 7 8 9 9 9 9 9 11 10 10 11 11 11 11 11 10 9 8 7 6 6 6 5 5 4 4 4 5 5 5 6
19 18 18 18 17 16 16 16 15 12 12 11 10 9 7 7 7 8 7 7 8 9 9 9 10 11 11 10 11 11 11 11 10 9 9 8 8 7 6 5 5 4 4 4 4 4 4 5 5
18 18 18 18 17 17 17 16 14 12 11 10 9 8 6 7 7 8 8 7 9 9 9 9 9 11 11 11 10 11 11 10 10 9 9 8 8 7 6 5 5 5 5 4 4 4 4 4 5
18 19 19 19 18 18 17 16 15 13 11 10 8 8 7 7 7 7 7 8 9 9 9 8 8 9 10 10 10 10 11 10 10 9 9 9 8 7 7 6 5 4 4 4 4 4 4 5 5
18 18 19 20 20 18 17 15 14 12 11 9 8 8 8 8 8 7 6 8 9 10 9 9 9 9 9 10 10 11 11 10 10 10 9 9 8 7 7 6 5 4 4 4 4 4 5 5 6
20 19 20 21 20 18 16 15 14 12 11 10 9 9 9 8 9 9 8 8 9 10 10 9 9 9 10 10 11 10 10 11 10 10 10 9 8 8 7 6 5 4 4 4 4 5 5 6 6
22 20 20 20 20 19 17 13 13 13 12 11 11 11 11 10 10 10 9 9 10 10 10 10 10 9 10 11 11 10 11 10 10 10 9 9 8 7 7 6 6 5 5 5 5 6 6 7 8
Wind_Direction
324 319 315 314 309 314 317 320 320 319 323 332 343 343 340 335 328 322 311 294 272 256 247 235 223 212 192 173 159 144 131 126 119 106 98 92 92 90 85 78 75 74 71 72 68 64 64 62 67
320 316 312 311 310 314 315 315 317 319 323 326 333 337 337 333 320 314 304 288 270 254 240 232 222 213 200 186 175 164 153 147 141 132 118 105 100 99 97 87 75 68 64 61 60 60 61 59 63
314 311 308 307 308 312 310 310 315 317 322 323 322 323 321 319 314 306 294 279 266 245 235 232 224 217 210 199 189 181 175 167 165 159 153 137 127 106 105 103 80 65 53 40 43 46 48 45 50
311 308 307 305 305 309 308 309 313 318 321 320 322 321 318 316 311 307 294 277 262 242 235 234 229 225 219 210 202 196 193 188 184 182 186 197 206 192 181 186 238 323 351 358 11 11 13 4 2
307 304 304 304 304 305 303 305 310 318 323 325 328 326 321 319 310 304 294 271 254 242 237 238 231 228 227 221 214 208 207 205 202 205 209 217 225 233 247 250 260 277 288 303 319 331 343 343 339
303 303 300 299 300 302 302 305 311 319 323 326 328 325 319 312 310 300 284 269 249 244 244 239 234 234 230 225 222 219 216 218 219 222 220 225 234 245 250 257 261 266 271 277 290 297 302 310 318
301 300 297 296 297 300 304 307 310 316 319 323 321 320 314 303 303 294 282 268 256 248 245 238 237 236 229 224 221 220 220 220 224 228 231 237 243 249 254 257 260 262 264 268 275 278 280 285 286
296 294 294 296 295 297 303 306 312 313 316 317 316 314 310 303 297 286 278 270 258 246 239 238 240 235 229 225 223 222 222 224 228 230 234 241 245 253 255 257 261 259 260 264 271 272 270 273 274
293 292 293 294 293 293 299 304 309 313 313 313 314 312 308 302 295 283 279 273 257 247 240 239 237 237 235 231 227 226 226 228 231 233 237 241 247 252 254 259 262 262 260 262 267 266 266 267 267
289 290 290 290 292 294 298 301 307 311 313 314 311 307 304 299 292 283 281 274 253 240 240 236 237 239 237 233 229 229 232 232 235 237 240 241 245 251 256 258 262 264 264 265 265 264 263 262 261
284 284 285 287 290 293 296 301 307 311 313 314 313 307 301 296 287 280 276 266 248 234 237 241 237 240 237 231 229 230 232 235 239 242 245 248 249 251 256 259 261 262 263 265 265 265 263 260 259
279 279 281 286 289 291 296 301 306 309 312 313 314 305 301 296 290 281 269 258 247 241 244 244 242 239 234 228 227 229 229 232 236 241 244 252 257 254 254 257 257 259 262 266 267 265 263 260 258
274 275 279 284 287 290 295 298 303 305 305 308 309 307 300 294 293 281 266 258 247 245 244 241 238 237 234 230 228 228 228 231 236 243 245 250 253 254 256 256 257 258 261 267 268 266 265 262 260
271 272 277 281 283 285 289 296 298 300 298 302 301 298 296 292 290 282 268 257 248 244 239 237 239 236 231 230 226 226 228 230 235 241 245 249 251 252 254 251 251 253 261 267 267 269 269 263 261
268 267 270 273 276 280 286 292 294 294 293 297 297 293 292 291 287 276 273 262 245 240 237 236 240 238 227 222 225 227 225 227 232 237 241 245 246 248 248 247 248 252 259 265 265 267 266 261 258
262 259 262 267 272 278 284 288 292 291 292 295 296 293 286 286 280 270 264 264 250 244 241 237 236 234 226 221 223 224 223 229 234 236 239 244 244 242 242 243 246 251 259 263 265 265 263 262 261
259 257 259 263 269 274 281 283 284 288 295 298 296 292 285 281 278 272 260 258 252 246 237 231 228 226 223 220 222 223 222 225 229 231 236 237 236 235 234 238 242 248 255 261 264 265 265 268 269
257 255 254 258 264 271 278 281 284 287 292 297 295 293 286 285 282 274 257 250 248 238 227 221 224 224 221 218 218 218 219 221 223 225 226 227 229 232 233 233 239 246 253 258 262 265 268 268 269
250 250 252 254 259 267 274 279 282 285 288 296 294 291 285 282 280 274 258 245 237 225 219 214 220 219 217 213 212 216 219 219 218 217 219 221 225 231 230 233 238 243 250 257 259 261 267 267 267
247 250 254 255 257 261 267 271 276 280 285 291 294 289 279 273 276 271 259 241 226 216 210 206 213 213 211 206 207 211 212 214 210 207 211 215 219 222 222 227 231 244 251 254 255 259 263 268 271
249 251 253 253 256 263 268 269 270 274 279 286 291 283 269 273 269 258 247 228 215 205 198 199 207 210 207 201 201 205 208 204 197 198 203 205 207 211 219 224 234 242 247 250 255 259 264 271 275
249 252 253 254 258 264 272 270 267 269 275 281 285 282 268 265 262 246 233 214 200 198 198 199 204 203 200 196 198 199 197 193 192 193 194 196 199 207 216 223 228 235 244 249 256 263 269 272 273
248 251 255 256 260 263 266 269 269 271 275 279 281 279 271 260 253 232 215 198 191 196 200 197 198 197 193 192 193 192 193 191 193 192 193 195 198 204 207 211 215 225 238 248 256 267 270 273 277
248 249 254 256 259 262 265 269 268 269 273 272 270 272 270 251 233 214 197 190 189 192 190 188 191 190 189 191 190 188 192 192 192 194 192 191 194 197 202 206 213 226 238 251 259 263 268 274 278
248 250 253 255 257 262 265 270 271 269 271 268 266 268 259 240 223 209 196 188 184 184 184 186 186 187 187 188 188 191 192 190 189 188 189 190 193 198 206 213 215 223 237 246 255 264 272 276 281
246 250 254 257 259 262 264 267 267 268 269 268 266 261 246 231 218 203 194 191 180 180 182 183 187 190 189 187 187 187 186 186 190 190 191 193 197 202 210 217 225 237 242 249 258 266 272 279 284
246 247 252 259 262 265 265 264 264 261 264 265 257 247 234 222 213 202 200 197 191 186 183 183 183 187 190 192 191 189 186 191 193 194 197 199 202 207 210 218 226 238 249 254 261 266 274 282 287
248 249 252 257 264 266 263 265 265 261 259 254 247 242 231 223 214 209 210 206 196 189 185 185 187 187 188 191 192 188 188 192 194 196 200 204 205 208 213 217 229 242 250 260 265 268 276 284 290
250 250 253 258 261 264 263 262 263 258 254 248 239 233 223 218 216 217 214 201 193 191 190 190 192 192 191 190 190 190 191 193 196 199 201 203 207 213 219 225 233 241 253 262 267 274 281 285 291
252 252 254 257 260 262 264 259 259 255 247 243 236 230 225 218 217 220 214 203 196 195 195 195 195 193 194 195 197 197 197 196 195 198 202 204 208 216 225 233 239 251 260 266 271 277 282 286 290
Height
5875 5874 5873 5873 5873 5873 5872 5872 5871 5870 5869 5869 5868 5868 5867 5867 5868 5870 5868 5867 5868 5869 5870 5871 5872 5873 5874 5874 5875 5876 5877 5879 5880 5882 5883 5884 5885 5886 5887 5888 5888 5889 5889 5890 5890 5891 5891 5891 5892
5874 5873 5873 5873 5872 5871 5871 5870 5870 5869 5868 5867 5867 5866 5866 5865 5865 5866 5865 5866 5866 5868 5869 5870 5871 5872 5873 5874 5875 5876 5877 5879 5880 5882 5883 5884 5885 5886 5887 5888 5889 5889 5890 5890 5891 5891 5892 5892 5893
5872 5871 5872 5871 5870 5870 5870 5869 5869 5868 5867 5866 5865 5865 5864 5864 5864 5864 5864 5864 5865 5866 5868 5869 5870 5871 5872 5873 5875 5876 5877 5879 5880 5881 5883 5884 5885 5886 5887 5888 5889 5890 5890 5891 5891 5892 5892 5893 5893
5871 5871 5870 5870 5869 5869 5868 5867 5867 5866 5865 5864 5864 5863 5862 5862 5862 5862 5862 5862 5863 5865 5866 5868 5869 5870 5871 5872 5874 5875 5876 5878 5879 5881 5882 5883 5884 5885 5886 5887 5889 5889 5890 5891 5891 5892 5892 5893 5894
5870 5869 5869 5868 5867 5867 5866 5865 5864 5864 5864 5863 5862 5861 5860 5860 5859 5860 5860 5861 5862 5863 5865 5866 5867 5869 5870 5871 5872 5874 5875 5877 5878 5880 5881 5882 5884 5885 5886 5887 5888 5889 5890 5890 5891 5892 5892 5893 5894
5868 5868 5867 5866 5865 5865 5865 5864 5863 5862 5862 5861 5860 5859 5858 5858 5857 5857 5858 5859 5860 5862 5863 5864 5865 5867 5868 5869 5871 5873 5874 5876 5877 5879 5880 5881 5883 5884 5885 5886 5887 5888 5889 5890 5890 5891 5892 5892 5893
5867 5865 5865 5864 5864 5863 5863 5862 5861 5860 5860 5859 5858 5857 5856 5856 5856 5856 5856 5857 5858 5860 5861 5862 5864 5865 5866 5867 5869 5871 5873 5874 5876 5877 5878 5880 5881 5882 5884 5885 5886 5887 5888 5889 5889 5890 5891 5891 5892
5864 5864 5862 5862 5862 5862 5861 5860 5859 5858 5857 5857 5856 5855 5855 5854 5854 5853 5854 5855 5856 5857 5859 5860 5862 5863 5864 5866 5867 5869 5871 5872 5874 5876 5877 5878 5879 5881 5882 5883 5884 5885 5886 5887 5888 5889 5889 5890 5891
5862 5862 5860 5860 5860 5859 5858 5858 5857 5856 5855 5854 5853 5853 5852 5851 5851 5851 5852 5852 5853 5854 5856 5858 5860 5861 5862 5863 5865 5867 5869 5870 5872 5874 5875 5877 5878 5879 5880 5881 5883 5884 5885 5885 5886 5887 5888 5889 5889
5860 5859 5859 5858 5857 5857 5856 5855 5854 5854 5852 5851 5850 5850 5849 5849 5848 5849 5849 5849 5850 5852 5854 5855 5857 5858 5860 5861 5863 5865 5866 5868 5870 5872 5873 5875 5876 5877 5879 5880 5881 5882 5883 5884 5884 5885 5886 5887 5888
5857 5857 5856 5855 5855 5854 5853 5853 5852 5851 5850 5849 5848 5847 5846 5846 5846 5846 5847 5847 5848 5850 5852 5853 5854 5855 5857 5859 5861 5862 5864 5866 5868 5869 5871 5873 5874 5875 5877 5878 5879 5880 5881 5882 5882 5883 5884 5885 5886
5855 5854 5854 5853 5852 5852 5851 5850 5849 5849 5848 5847 5845 5845 5844 5844 5843 5844 5845 5845 5847 5848 5849 5851 5852 5853 5854 5856 5858 5860 5862 5864 5865 5867 5869 5870 5872 5873 5874 5876 5877 5878 5879 5879 5880 5881 5882 5883 5884
5852 5852 5851 5851 5850 5849 5849 5848 5847 5847 5846 5845 5844 5843 5843 5842 5841 5842 5842 5843 5844 5845 5847 5848 5849 5851 5852 5854 5856 5858 5859 5861 5863 5865 5866 5868 5870 5871 5872 5874 5875 5876 5876 5877 5878 5878 5879 5880 5881
5849 5849 5849 5849 5848 5847 5846 5846 5845 5845 5844 5843 5842 5841 5841 5840 5840 5840 5840 5841 5842 5843 5845 5846 5847 5849 5850 5852 5853 5855 5857 5859 5861 5862 5864 5865 5867 5869 5870 5871 5872 5874 5874 5875 5875 5876 5877 5878 5879
5846 5847 5847 5846 5845 5845 5844 5844 5843 5842 5841 5840 5840 5839 5839 5838 5838 5838 5839 5839 5839 5841 5842 5843 5845 5846 5847 5849 5851 5853 5854 5856 5858 5860 5861 5863 5865 5866 5868 5869 5870 5871 5872 5873 5873 5874 5874 5875 5876
5843 5844 5844 5844 5843 5842 5843 5842 5841 5840 5839 5838 5838 5837 5837 5836 5836 5836 5836 5837 5837 5838 5839 5840 5842 5843 5845 5847 5849 5850 5852 5854 5856 5857 5859 5861 5862 5864 5865 5867 5868 5869 5870 5870 5871 5871 5872 5873 5874
5839 5840 5841 5841 5840 5839 5839 5839 5838 5837 5837 5836 5835 5835 5834 5834 5833 5833 5833 5834 5834 5835 5836 5838 5839 5841 5843 5845 5847 5848 5850 5852 5853 5855 5857 5858 5860 5862 5863 5865 5866 5867 5868 5868 5869 5869 5870 5871 5871
5836 5837 5838 5838 5837 5836 5836 5836 5836 5835 5835 5834 5833 5832 5832 5832 5831 5831 5830 5831 5831 5832 5833 5835 5837 5838 5840 5842 5844 5846 5848 5850 5851 5853 5855 5857 5858 5860 5861 5863 5864 5865 5866 5866 5867 5867 5868 5869 5869
5832 5833 5834 5835 5834 5834 5833 5833 5833 5832 5832 5832 5831 5830 5830 5829 5829 5828 5828 5828 5829 5830 5831 5833 5835 5837 5839 5841 5843 5845 5847 5849 5850 5851 5853 5855 5856 5857 5859 5861 5862 5863 5864 5865 5865 5866 5866 5867 5867
5829 5830 5831 5832 5831 5830 5830 5831 5831 5830 5830 5830 5829 5828 5828 5827 5826 5826 5826 5826 5827 5828 5830 5831 5833 5835 5837 5839 5841 5844 5846 5847 5848 5850 5851 5853 5854 5856 5857 5859 5860 5861 5862 5863 5863 5864 5864 5864 5865
5825 5826 5827 5828 5828 5827 5828 5828 5828 5828 5828 5827 5827 5826 5825 5825 5824 5824 5824 5824 5825 5827 5828 5830 5831 5833 5835 5837 5840 5842 5844 5846 5847 5849 5850 5852 5853 5855 5856 5857 5859 5860 5860 5861 5862 5862 5862 5863 5863
5822 5823 5824 5824 5825 5825 5825 5825 5825 5825 5825 5825 5825 5824 5823 5823 5822 5822 5822 5823 5824 5826 5828 5829 5831 5832 5834 5836 5838 5840 5843 5845 5846 5848 5849 5851 5852 5853 5855 5856 5857 5858 5859 5859 5860 5860 5860 5861 5861
5818 5819 5820 5821 5821 5822 5822 5821 5823 5822 5822 5822 5822 5822 5821 5821 5821 5821 5821 5822 5824 5825 5827 5828 5830 5832 5833 5835 5837 5839 5841 5843 5845 5847 5848 5850 5851 5852 5853 5855 5856 5857 5857 5858 5858 5858 5859 5859 5859
5814 5816 5816 5817 5818 5819 5819 5819 5819 5819 5820 5820 5820 5820 5819 5819 5819 5820 5821 5822 5823 5825 5826 5827 5829 5831 5832 5834 5836 5838 5840 5842 5844 5845 5847 5848 5850 5851 5853 5854 5855 5855 5856 5856 5856 5857 5857 5857 5857
5811 5812 5813 5813 5814 5815 5816 5816 5817 5817 5817 5817 5817 5817 5817 5817 5818 5819 5820 5821 5822 5824 5825 5827 5828 5830 5831 5833 5835 5837 5839 5841 5843 5844 5846 5848 5849 5851 5852 5853 5854 5854 5855 5855 5855 5855 5856 5856 5856
5807 5809 5810 5811 5811 5812 5813 5813 5815 5815 5815 5815 5815 5815 5816 5816 5817 5818 5819 5820 5822 5823 5825 5826 5828 5829 5831 5833 5834 5836 5838 5840 5842 5844 5845 5847 5849 5850 5851 5852 5853 5853 5853 5854 5854 5854 5854 5854 5854
5803 5804 5806 5807 5808 5809 5809 5811 5812 5813 5813 5813 5814 5814 5815 5816 5817 5818 5819 5820 5821 5823 5824 5826 5827 5829 5830 5832 5834 5835 5837 5839 5841 5843 5844 5846 5848 5849 5850 5851 5851 5852 5852 5852 5853 5853 5853 5853 5853
5800 5801 5803 5804 5804 5805 5806 5807 5809 5810 5811 5812 5812 5813 5814 5816 5817 5818 5819 5819 5821 5822 5824 5825 5827 5828 5830 5831 5833 5835 5836 5838 5840 5842 5844 5845 5847 5848 5849 5850 5850 5850 5851 5851 5852 5852 5852 5852 5851
5796 5798 5798 5800 5801 5802 5803 5807 5807 5808 5809 5810 5811 5812 5813 5814 5816 5817 5818 5819 5820 5822 5823 5825 5827 5828 5829 5831 5832 5834 5835 5837 5839 5841 5843 5844 5846 5847 5848 5848 5849 5849 5850 5850 5850 5850 5850 5850 5850
5791 5793 5794 5796 5797 5798 5799 5805 5804 5805 5806 5807 5808 5810 5811 5813 5814 5816 5817 5818 5820 5821 5823 5825 5826 5827 5828 5830 5832 5833 5835 5836 5838 5840 5842 5843 5844 5845 5846 5847 5848 5848 5848 5849 5849 5849 5849 5848 5848